GW7286 Weather Reports


time (UTC)temp
C
wind
direction
speed
KPH
gust
KPH
rain 1hr
cm
rain 24hr
cm
rain mn
cm
humidity
%
barometer
mb
20260509123015 11 229 0.0 9.7 0.00 0.00 0.00 74 998.0
20260509121532 11 239 0.0 6.4 0.00 0.00 0.00 73 998.0
20260509120024 11 141 4.8 14.5 0.00 0.00 0.00 73 998.5
20260509114503 11 116 3.2 12.9 0.00 0.00 0.00 71 998.3
20260509113008 11 221 4.8 11.3 0.00 0.00 0.00 69 998.5
20260509111522 11 60 1.6 9.7 0.00 0.00 0.00 68 998.3
20260509110025 11 171 1.6 9.7 0.00 0.00 0.00 67 998.3
20260509104533 12 241 0.0 11.3 0.00 0.00 0.00 67 998.6
20260509103027 12 250 3.2 35.4 0.00 0.00 0.00 65 998.2
20260509101527 11 225 3.2 22.5 0.00 0.00 0.00 64 998.4
20260509100039 11 251 0.0 4.8 0.00 0.00 0.00 64 998.7
20260509094525 11 138 0.0 4.8 0.00 0.00 0.00 62 999.0
20260509093024 11 87 0.0 4.8 0.00 0.00 0.00 59 999.2
20260509091525 11 355 1.6 9.7 0.00 0.00 0.00 58 999.4
20260509090028 11 208 0.0 4.8 0.00 0.00 0.00 56 999.7
20260509084530 10 157 1.6 16.1 0.00 0.00 0.00 52 1000.0
20260509083026 10 128 1.6 11.3 0.00 0.00 0.00 48 1000.3
20260509081539 10 302 0.0 3.2 0.00 0.00 0.00 45 1000.4
20260509080025 11 122 1.6 6.4 0.00 0.00 0.00 40 1000.4
20260509074524 11 240 1.6 8.0 0.00 0.00 0.00 40 1000.7
20260509073026 11 188 0.0 8.0 0.00 0.00 0.00 38 1000.9
20260509071525 12 256 0.0 11.3 0.00 0.00 0.00 39 1001.3
20260509070029 12 219 4.8 11.3 0.00 0.00 0.00 38 1001.4
20260509064526 12 221 3.2 12.9 0.00 0.00 0.00 41 1001.8
20260509063029 12 212 3.2 11.3 0.00 0.00 0.00 40 1002.2
20260509061525 11 195 0.0 9.7 0.00 0.00 0.00 44 1002.1
20260509060025 11 160 0.0 8.0 0.00 0.00 0.00 45 1002.3
20260509054528 11 114 0.0 6.4 0.00 0.00 0.00 47 1002.4
20260509053029 11 160 0.0 8.0 0.00 0.00 0.00 43 1002.6
20260509051532 12 131 0.0 4.8 0.00 0.00 0.00 46 1003.0
20260509050033 12 211 0.0 11.3 0.00 0.00 0.00 44 1003.1
20260509044541 11 223 4.8 12.9 0.00 0.00 0.00 43 1003.5
20260509043028 11 118 0.0 6.4 0.00 0.00 0.00 47 1003.6
20260509041528 10 176 0.0 3.2 0.00 0.00 0.00 54 1003.8
20260509040024 9 112 0.0 4.8 0.00 0.00 0.00 57 1004.1
20260509034503 9 239 0.0 0.0 0.00 0.00 0.00 64 1004.0
20260509033007 10 113 0.0 1.6 0.00 0.00 0.00 58 1004.0
20260509031516 10 107 0.0 0.0 0.00 0.00 0.00 56 1004.3
20260509030025 10 107 0.0 1.6 0.00 0.00 0.00 53 1004.5
20260509024526 11 112 0.0 0.0 0.00 0.00 0.00 50 1004.5
20260509023014 11 130 0.0 0.0 0.00 0.00 0.00 48 1004.7
20260509021515 12 169 0.0 3.2 0.00 0.00 0.00 46 1004.6
20260509020018 12 158 0.0 4.8 0.00 0.00 0.00 45 1004.7
20260509014526 12 121 0.0 0.0 0.00 0.00 0.00 45 1004.6
20260509013035 12 121 0.0 0.0 0.00 0.00 0.00 43 1004.6
20260509011508 13 212 0.0 4.8 0.00 0.00 0.00 43 1004.5
20260509010011 13 252 0.0 1.6 0.00 0.00 0.00 44 1004.6
20260509004527 13 136 0.0 0.0 0.00 0.00 0.00 42 1004.4
20260509003032 14 262 1.6 4.8 0.00 0.00 0.00 37 1004.5
20260509001528 15 221 0.0 12.9 0.00 0.00 0.00 36 1004.5
20260509000007 15 234 4.8 6.4 0.00 0.00 0.00 35 1004.6
20260508234518 15 222 6.4 14.5 0.00 0.00 0.00 35 1004.8
20260508233026 15 224 1.6 12.9 0.00 0.00 0.00 35 1004.8
20260508231526 15 236 6.4 17.7 0.00 0.00 0.00 34 1004.8
20260508230045 16 269 6.4 16.1 0.00 0.00 0.00 33 1004.9
20260508224529 16 244 8.0 20.9 0.00 0.00 0.00 33 1004.9
20260508223032 16 277 8.0 19.3 0.00 0.00 0.00 31 1005.0
20260508221526 16 273 8.0 14.5 0.00 0.00 0.00 33 1005.0
20260508220031 15 321 8.0 16.1 0.00 0.00 0.00 31 1005.2
20260508214526 15 277 11.3 17.7 0.00 0.00 0.00 30 1005.3
20260508213026 15 281 11.3 22.5 0.00 0.00 0.00 30 1005.2
20260508211526 15 283 8.0 20.9 0.00 0.00 0.00 31 1005.3
20260508210030 15 273 9.7 25.7 0.00 0.00 0.00 31 1005.5
20260508204526 15 304 11.3 22.5 0.00 0.00 0.00 30 1005.6
20260508203026 15 251 12.9 24.1 0.00 0.00 0.00 32 1005.8
20260508201529 15 302 11.3 20.9 0.00 0.00 0.00 30 1006.0
20260508200026 15 259 12.9 22.5 0.00 0.00 0.00 32 1006.2
20260508194527 15 297 4.8 24.1 0.00 0.00 0.00 31 1006.5
20260508193055 15 310 12.9 22.5 0.00 0.00 0.00 31 1006.8
20260508191530 14 321 12.9 20.9 0.00 0.00 0.00 32 1006.9
20260508190035 14 309 8.0 27.4 0.00 0.00 0.00 32 1007.1
20260508184503 14 280 14.5 29.0 0.00 0.00 0.00 32 1007.1
20260508183004 14 289 14.5 24.1 0.00 0.00 0.00 32 1007.3
20260508181519 13 308 9.7 25.7 0.00 0.00 0.00 32 1007.3
20260508180028 13 319 11.3 25.7 0.00 0.00 0.00 33 1007.5
20260508174530 13 319 14.5 30.6 0.00 0.00 0.00 33 1007.8
20260508173004 13 274 14.5 25.7 0.00 0.00 0.00 33 1007.8
20260508171507 13 229 11.3 24.1 0.00 0.00 0.00 34 1008.0
20260508170010 13 257 11.3 19.3 0.00 0.00 0.00 34 1008.2
20260508164535 13 303 9.7 27.4 0.00 0.00 0.00 36 1008.4
20260508163019 13 281 12.9 25.7 0.00 0.00 0.00 35 1008.7
20260508161506 12 269 12.9 27.4 0.00 0.00 0.00 39 1008.6
20260508160010 12 249 4.8 20.9 0.00 0.00 0.00 41 1008.8
20260508154521 12 243 8.0 17.7 0.00 0.00 0.00 43 1009.0
20260508153035 11 302 12.9 17.7 0.00 0.00 0.00 43 1009.0
20260508151538 11 273 11.3 20.9 0.00 0.00 0.00 46 1009.4
20260508150009 11 326 9.7 19.3 0.00 0.00 0.00 48 1009.4
20260508144510 10 280 6.4 14.5 0.00 0.00 0.00 52 1009.5
20260508143010 10 257 6.4 19.3 0.00 0.00 0.00 53 1009.6
20260508141526 10 224 4.8 12.9 0.00 0.00 0.00 54 1009.7
20260508140022 9 271 8.0 12.9 0.00 0.00 0.00 56 1009.7
20260508134506 9 240 4.8 9.7 0.00 0.00 0.00 59 1009.7
20260508133011 8 245 1.6 9.7 0.00 0.00 0.00 65 1009.8
20260508131524 7 229 6.4 9.7 0.00 0.00 0.00 64 1009.9
20260508130026 7 230 0.0 3.2 0.00 0.00 0.00 71 1010.0
20260508124532 5 106 0.0 4.8 0.00 0.00 0.00 76 1010.0